Location: Molino di Ancona
(43.6167°N, 13.3667°E)
Time: 06:59:07
(UTC+00:00)

Envisat - Visible Passes

Search period start: 04 March 2021 00:00
Search period end: 14 March 2021 00:00
Orbit: 764 x 766 km, 98.1° (Epoch: 03 March)

Date Brightness Start Highest point End Pass type
(mag) Time Alt. Az. Time Alt. Az. Time Alt. Az.
04 Mar 4.1 04:23:58 10° NNE 04:28:53 47° E 04:33:45 10° S visible
04 Mar 6.4 17:21:19 10° WSW 17:24:05 15° W 17:26:52 10° NW visible
05 Mar 5.5 03:47:54 10° NE 03:51:49 22° E 03:55:42 10° SE visible
06 Mar 3.2 04:49:13 10° NNE 04:54:20 82° ESE 04:59:25 10° SSW visible
07 Mar 4.6 04:12:41 10° NNE 04:17:24 37° E 04:22:05 10° SSE visible
08 Mar 5.9 03:36:55 10° NE 03:40:17 17° E 03:43:36 10° SE visible
09 Mar 3.5 04:37:49 10° NNE 04:42:53 65° ESE 04:47:55 10° S visible
09 Mar 6.8 17:37:37 10° W 17:38:15 10° W 17:38:53 10° W visible
10 Mar 5.1 04:01:27 10° NE 04:05:54 30° E 04:10:19 10° SSE visible
11 Mar 6.1 03:26:10 10° ENE 03:28:42 14° E 03:31:14 10° ESE visible
12 Mar 4.0 04:26:28 10° NNE 04:31:25 51° E 04:36:21 10° S visible
13 Mar 5.5 03:50:18 10° NE 03:54:23 24° E 03:58:26 10° SSE visible
